Weather History for Brooksville, FL

Change the Weather History Date:

Friday, April 19, 2013

  Actual Average Record
Temperature  
Mean Temperature 80 °F -  
Max Temperature 89 °F 80 °F 91 °F (2011)
Min Temperature 70 °F 52 °F 32 °F (2001)
Cooling Degree Days 14    
Growing Degree Days 30 (Base 50)    
Moisture  
Dew Point 69 °F    
Average Humidity 77    
Maximum Humidity 97    
Minimum Humidity 43    
Precipitation  
Precipitation 0.16 in - - ()
Sea Level Pressure  
Sea Level Pressure 30.00 in    
Wind  
Wind Speed 9 mph (SSE)    
Max Wind Speed 21 mph    
Max Gust Speed 26 mph    
Visibility 10 miles    
Events Rain    
Averages and records for this station are not official NWS values.
T = Trace of Precipitation, MM = Missing Value Source: NWS Daily Summary

Daily Weather History Graph

Daily Weather History Graph

Search for Another Location

Airport:

Trip Planner

Search our weather history database for the weather conditions in past years. The results will help you decide how hot, cold, wet, or windy it might be!

Date:

Astronomy

Apr. 19, 2013 Rise Set
Actual Time 7:00 AM EDT 7:58 PM EDT
Civil Twilight 6:35 AM EDT 8:22 PM EDT
Nautical Twilight 6:07 AM EDT 8:51 PM EDT
Astronomical Twilight 5:37 AM EDT 9:20 PM EDT
Moon 2:10 PM EDT (4/19) 2:43 AM EDT (4/19)
Length of Visible Light 13h 46m
Length of Day
12h 57m
First Quarter, 61% of the Moon is Illuminated
Apr 19
First Quarter
Apr 25
Full
May 2
Last Quarter
May 9
New
May 18
First Quarter

Hourly Weather History & Observations

Time (EDT) Temp. Heat Index Dew Point Humidity Pressure Visibility Wind Dir Wind Speed Gust Speed Precip Events Conditions
12:53 AM 73.0 °F - 71.1 °F 93% 30.02 in 9.0 mi East 4.6 mph - 0.00 in Rain Light Rain
1:23 AM 73.4 °F - 71.6 °F 94% 30.02 in 10.0 mi ESE 3.5 mph - 0.00 in   Overcast
1:53 AM 72.0 °F - 70.0 °F 93% 30.02 in 10.0 mi SE 12.7 mph 18.4 mph 0.00 in   Overcast
2:11 AM 71.6 °F - 69.8 °F 94% 30.02 in 7.0 mi ESE 9.2 mph - 0.01 in Rain Light Rain
2:53 AM 71.1 °F - 70.0 °F 96% 30.01 in 4.0 mi South 4.6 mph - 0.07 in Rain Rain
3:42 AM 71.6 °F - 69.8 °F 94% 30.00 in 9.0 mi East 3.5 mph - 0.08 in Rain Light Rain
3:53 AM 71.1 °F - 70.0 °F 96% 29.99 in 10.0 mi ENE 3.5 mph - 0.08 in Rain Light Rain
4:53 AM 70.0 °F - 69.1 °F 97% 29.97 in 10.0 mi ESE 4.6 mph - 0.00 in   Clear
5:53 AM 71.1 °F - 70.0 °F 96% 29.98 in 10.0 mi ESE 8.1 mph - N/A   Clear
6:53 AM 71.1 °F - 69.1 °F 93% 30.00 in 10.0 mi SSE 4.6 mph - N/A   Scattered Clouds
7:53 AM 72.0 °F - 71.1 °F 97% 30.01 in 10.0 mi SE 6.9 mph - N/A   Clear
8:30 AM 73.4 °F - 71.6 °F 94% 30.01 in 10.0 mi SE 9.2 mph - N/A   Partly Cloudy
8:53 AM 75.0 °F - 72.0 °F 90% 30.01 in 10.0 mi SSE 11.5 mph 17.3 mph N/A   Partly Cloudy
9:53 AM 78.1 °F - 73.0 °F 84% 30.01 in 10.0 mi SSE 15.0 mph - N/A   Partly Cloudy
10:53 AM 82.0 °F 87.4 °F 73.0 °F 74% 30.02 in 10.0 mi SSE 12.7 mph 26.5 mph 0.01 in   Mostly Cloudy
11:12 AM 82.4 °F 87.2 °F 71.6 °F 70% 30.03 in 10.0 mi South 16.1 mph 24.2 mph N/A   Mostly Cloudy
11:44 AM 84.2 °F 89.6 °F 71.6 °F 66% 30.03 in 10.0 mi South 15.0 mph 23.0 mph N/A   Mostly Cloudy
11:53 AM 84.9 °F 90.7 °F 72.0 °F 65% 30.02 in 10.0 mi South 18.4 mph 24.2 mph N/A   Mostly Cloudy
12:53 PM 84.0 °F 89.0 °F 71.1 °F 65% 30.01 in 10.0 mi SSW 13.8 mph 21.9 mph N/A   Mostly Cloudy
1:53 PM 87.1 °F 91.3 °F 69.1 °F 55% 29.99 in 10.0 mi South 20.7 mph 26.5 mph N/A   Partly Cloudy
2:53 PM 88.0 °F 92.1 °F 69.1 °F 53% 29.96 in 10.0 mi SSW 15.0 mph 23.0 mph N/A   Scattered Clouds
3:53 PM 88.0 °F 90.3 °F 66.0 °F 48% 29.94 in 10.0 mi SW 15.0 mph 24.2 mph N/A   Clear
4:53 PM 89.1 °F 91.3 °F 66.0 °F 46% 29.94 in 10.0 mi SSW 20.7 mph - N/A   Clear
5:53 PM 88.0 °F 88.7 °F 63.0 °F 43% 29.95 in 10.0 mi SSW 16.1 mph 24.2 mph N/A   Clear
6:53 PM 86.0 °F 86.8 °F 63.0 °F 46% 29.94 in 10.0 mi SSW 13.8 mph - N/A   Clear
7:53 PM 82.0 °F 83.4 °F 64.0 °F 54% 29.96 in 10.0 mi SSW 6.9 mph - N/A   Clear
8:53 PM 78.1 °F - 66.0 °F 66% 29.98 in 10.0 mi SW 4.6 mph - N/A   Clear
9:53 PM 77.0 °F - 68.0 °F 74% 30.00 in 10.0 mi South 8.1 mph - N/A   Clear
10:53 PM 75.9 °F - 70.0 °F 82% 30.01 in 10.0 mi SSW 6.9 mph - N/A   Partly Cloudy
11:53 PM 75.0 °F - 70.0 °F 84% 30.02 in 10.0 mi SSW 5.8 mph - N/A   Scattered Clouds